STARLINK-34001, 64272

Orbit data source: Space-Track

STARLINK-34001, 64272 is a payload satellite owned by SpaceX/Seattle (US) in LEO that was launched on Wed, 04 Jun 2025 UTC via an FALCON 9 launch vehicle from the Air Force Western Test Range (AFWTR). Payload-class satellites include a variety of spacecraft equipped with specific instruments for various scientific and technological missions. These include communications satellites like Starlink; space stations such as the ISS; scientific satellites like the Hubble; Earth observation satellites from companies like Planet Labs, Umbra, and HawkEye 360; GPS; miniature CubeSats for education and research; and military/defense satellites.

Loading next visibility...
Identifier
64272, 2025-120S
Orbit
LEO
Country
Flag of USUS
Related business
Manufacturer
SpaceX/Seattle
Mission
Operational Commercial Communications
Bus & Motor
STARLINK V2MO, Unknown motor
Mass
575 kg wet, ~530 kg dry
Launch date (UTC)
2025-06-04 (1 year ago)
Launch vehicle
FALCON 9
Launch site
Air Force Western Test Range (AFWTR)
Object type
Payload
Rocket body
Debris
Shape & HBR
Box + 2 Pan, 17.7 m
Radar Cross Section
36.964 m², Large (>1 m²)

Expand to show TLE details & history
Last TLE update: 22 hours ago

TLE from 22 hours ago
0 STARLINK-34001
1 64272U 25120S   26170.92122321  .00012424  00000-0  43111-3 0  9995
2 64272  53.1622   2.1664 0001376  91.0570 269.0589 15.30182882 59461
Epoch: 2026-06-19T22:06Z
TLE epoch observation values (Epoch: 2026-06-19T22:06:33.685Z)
Latitude
0.00003°
Longitude
122.3828°
Altitude
476.182 km
Speed
7.629 km/s
True Right ascension
00h 08m 39s
True Declination
0° 00' 00"
Sunlit
Object was in daylight at epoch
Visualization orbit readout
Latitude
Unknown
Longitude
Unknown
Altitude
Unknown
Speed
Unknown
Apparent Right ascension
Unknown
Apparent Declination
Unknown
Sunlit
N/A
Visualization observer readout
Local Sidereal Time
07:14:00
Azimuth
Unknown
Elevation
Unknown
Doppler factor
Unknown
Orbital elements
Apogee altitude
476.465 km
Perigee altitude
474.579 km
Semi-major axis
6,853.659 km
Eccentricity
0.00014
Inclination
53.1622°
RAAN
2.1664°
Arg. of periapsis
91.057°
True anomaly
269.04313°
Mean anomaly
269.0589°
Eccentric anomaly
269.05102°
Mean motion
3.82525 °/min
Orbital period
94.11 mins
BSTAR
0.00043111
Loading maneuver chart data...
Computing Atmospheric mass density...
Loading historical data...
Loading historical data...
Loading historical data...
Loading historical data...
Loading historical data...
Loading historical data...
Loading historical data...

Documentation

Showing up to 5 results
|